Weather History for Camarillo, CA

Change the Weather History Date:

Sunday, July 21, 2013

  Actual Average Record
Temperature  
Mean Temperature 72 °F 67 °F  
Max Temperature 76 °F 76 °F 92 °F (1960)
Min Temperature 68 °F 58 °F 45 °F (1949)
Degree Days  
Heating Degree Days 0 0  
Month to date heating degree days 0 1  
Since 1 June heating degree days 0 44  
Since 1 July heating degree days 0 1  
Cooling Degree Days 7 3  
Month to date cooling degree days 169 46  
Year to date cooling degree days 421 100  
Since 1 June cooling degree days 315 69  
Growing Degree Days 22 (Base 50)    
Moisture  
Dew Point 60 °F    
Average Humidity 67    
Maximum Humidity 73    
Minimum Humidity 60    
Precipitation  
Precipitation T in 0.00 in 0.00 in (2014)
Month to date precipitation T 0.01  
Year to date precipitation 2.15 10.99  
Since 1 July precipitation T 0.01  
Sea Level Pressure  
Sea Level Pressure 29.88 in    
Wind  
Wind Speed 5 mph (SW)    
Max Wind Speed 13 mph    
Max Gust Speed 14 mph    
Visibility 7 miles    
Events      
T = Trace of Precipitation, MM = Missing Value Source: NWS Daily Summary

Daily Weather History Graph

Daily Weather History Graph

Search for Another Location

Airport:

Trip Planner

Search our weather history database for the weather conditions in past years. The results will help you decide how hot, cold, wet, or windy it might be!

Date:

Astronomy

Jul. 21, 2013 Rise Set
Actual Time 5:59 AM PDT 8:05 PM PDT
Civil Twilight 5:31 AM PDT 8:33 PM PDT
Nautical Twilight 4:57 AM PDT 9:07 PM PDT
Astronomical Twilight 4:20 AM PDT 9:44 PM PDT
Moon 7:09 PM PDT (7/21) 4:50 AM PDT (7/21)
Length of Visible Light 15h 01m
Length of Day
14h 05m
Waxing Gibbous, 99% of the Moon is Illuminated
Jul 21
Waxing Gibbous
Jul 22
Full
Jul 29
Last Quarter
Aug 6
New
Aug 14
First Quarter

Hourly Weather History & Observations

Time (PDT) Temp. Dew Point Humidity Pressure Visibility Wind Dir Wind Speed Gust Speed Precip Events Conditions
12:55 AM 69.1 °F 59.0 °F 70% 29.84 in 10.0 mi West 4.6 mph - N/A   Clear
1:55 AM 69.1 °F 59.0 °F 70% 29.86 in 10.0 mi Calm Calm - N/A   Clear
2:25 AM 68.0 °F 57.2 °F 68% 29.83 in 10.0 mi SW 3.5 mph - N/A   Scattered Clouds
2:34 AM 68.0 °F 57.2 °F 68% 29.83 in 10.0 mi Calm Calm - N/A   Mostly Cloudy
2:55 AM 69.1 °F 57.9 °F 68% 29.85 in 10.0 mi SW 3.5 mph - N/A   Mostly Cloudy
3:35 AM 69.8 °F 59.0 °F 68% 29.81 in 9.0 mi SW 3.5 mph - N/A   Scattered Clouds
3:55 AM 68.0 °F 59.0 °F 73% 29.85 in 9.0 mi Calm Calm - N/A   Clear
4:55 AM 69.1 °F 57.9 °F 68% 29.85 in 10.0 mi Calm Calm - N/A   Clear
5:55 AM 69.1 °F 59.0 °F 70% 29.85 in 10.0 mi NNW 3.5 mph - N/A   Clear
6:55 AM 69.1 °F 59.0 °F 70% 29.83 in 8.0 mi Calm Calm - N/A   Clear
7:55 AM 71.1 °F 60.1 °F 68% 29.85 in 8.0 mi East 4.6 mph - N/A   Clear
8:55 AM 75.9 °F 61.0 °F 60% 29.84 in 9.0 mi WSW 5.8 mph - N/A   Clear
9:55 AM 75.0 °F 61.0 °F 62% 29.88 in 8.0 mi SSW 10.4 mph - N/A   Clear
10:09 AM 73.4 °F 60.8 °F 65% 29.86 in 7.0 mi SW 9.2 mph - N/A   Partly Cloudy
10:44 AM 71.6 °F 60.8 °F 69% 29.88 in 6.0 mi SW 10.4 mph - N/A   Haze
10:55 AM 72.0 °F 61.0 °F 68% 29.91 in 5.0 mi SW 10.4 mph - N/A   Haze
11:07 AM 71.6 °F 62.6 °F 73% 29.88 in 2.5 mi SW 9.2 mph - N/A   Haze
11:47 AM 71.6 °F 62.6 °F 73% 29.88 in 5.0 mi SW 6.9 mph - N/A   Haze
11:55 AM 72.0 °F 62.1 °F 71% 29.91 in 5.0 mi SW 8.1 mph - N/A   Haze
12:55 PM 72.0 °F 62.1 °F 71% 29.91 in 6.0 mi SW 6.9 mph - N/A   Haze
1:55 PM 73.0 °F 62.1 °F 68% 29.91 in 7.0 mi SW 9.2 mph - N/A   Overcast
2:55 PM 73.0 °F 62.1 °F 68% 29.91 in 6.0 mi SW 6.9 mph - N/A   Haze
3:55 PM 71.1 °F 62.1 °F 73% 29.91 in 6.0 mi SSW 6.9 mph - N/A   Haze
4:55 PM 70.0 °F 61.0 °F 73% 29.90 in 5.0 mi SW 5.8 mph - N/A   Haze
5:55 PM 70.0 °F 61.0 °F 73% 29.90 in 6.0 mi WSW 5.8 mph - N/A   Haze
6:55 PM 69.1 °F 61.0 °F 75% 29.91 in 5.0 mi SW 5.8 mph - N/A   Haze
7:55 PM 69.1 °F 61.0 °F 75% 29.92 in 4.0 mi West 4.6 mph - N/A   Haze
8:55 PM 69.1 °F 61.0 °F 75% 29.93 in 5.0 mi Calm Calm - N/A   Haze
9:55 PM 69.1 °F 61.0 °F 75% 29.94 in 5.0 mi Calm Calm - N/A   Haze
10:13 PM 69.8 °F 60.8 °F 73% 29.91 in 5.0 mi Calm Calm - N/A   Haze
10:55 PM 69.1 °F 61.0 °F 75% 29.94 in 6.0 mi West 3.5 mph - N/A   Haze
11:55 PM 69.1 °F 61.0 °F 75% 29.95 in 5.0 mi West 3.5 mph - N/A   Haze